AXM6358 WBGG-WBKK

Flight info

Callsign AXM6358
Flight time 1h 15m
Altitude 39000
Route KIKAK1J KIKAK DCT PILAX G580 BRU M646 DULIM DULIM2B
Aircraft A20N/M-SDE2E3FGHIRWXY/LB1

Departure

Time 2026-04-29 15:14
Airport Kuching International Airport (WBGG)

Arrival

Time 2026-04-29 16:29
Airport Kota Kinabalu International Airport (WBKK)
Time Latitude Longitude Altitude Speed Heading
2026-04-29 14:58 1.48693 110.34315 77 ft 0 kts 338°
2026-04-29 15:00 1.48688 110.34317 69 ft 1 kts 335°
2026-04-29 15:00 1.48680 110.34321 66 ft 2 kts 334°
2026-04-29 15:00 1.48668 110.34327 66 ft 2 kts 334°
2026-04-29 15:00 1.48654 110.34333 69 ft 2 kts 334°
2026-04-29 15:01 1.48643 110.34339 68 ft 1 kts 324°
2026-04-29 15:01 1.48637 110.34343 71 ft 1 kts 313°
2026-04-29 15:01 1.48632 110.34349 73 ft 1 kts 303°
2026-04-29 15:01 1.48629 110.34354 72 ft 1 kts 294°
2026-04-29 15:02 1.48626 110.34361 71 ft 1 kts 284°
2026-04-29 15:02 1.48624 110.34368 69 ft 1 kts 273°
2026-04-29 15:02 1.48624 110.34374 72 ft 1 kts 264°
2026-04-29 15:02 1.48624 110.34376 72 ft 0 kts 263°
2026-04-29 15:06 1.48623 110.34366 72 ft 3 kts 260°
2026-04-29 15:06 1.48611 110.34334 73 ft 7 kts 249°
2026-04-29 15:07 1.48590 110.34281 77 ft 10 kts 249°
2026-04-29 15:07 1.48548 110.34240 77 ft 9 kts 186°
2026-04-29 15:07 1.48488 110.34259 68 ft 11 kts 154°
2026-04-29 15:07 1.48445 110.34277 83 ft 0 kts 159°
2026-04-29 15:11 1.48438 110.34280 84 ft 6 kts 159°
2026-04-29 15:12 1.48400 110.34295 89 ft 6 kts 158°
2026-04-29 15:12 1.48380 110.34303 89 ft 4 kts 158°
2026-04-29 15:12 1.48357 110.34328 91 ft 5 kts 102°
2026-04-29 15:12 1.48365 110.34358 89 ft 4 kts 67°
2026-04-29 15:13 1.48393 110.34425 90 ft 31 kts 67°
2026-04-29 15:13 1.48557 110.34846 75 ft 97 kts 69°
2026-04-29 15:13 1.48871 110.35627 133 ft 136 kts 68°
2026-04-29 15:13 1.49173 110.36346 590 ft 144 kts 65°
2026-04-29 15:14 1.49556 110.37229 1174 ft 156 kts 67°
2026-04-29 15:14 1.49961 110.38227 1794 ft 156 kts 67°
2026-04-29 15:14 1.50393 110.39286 2211 ft 174 kts 67°
2026-04-29 15:14 1.50800 110.40291 2539 ft 192 kts 68°
2026-04-29 15:15 1.51281 110.41476 2852 ft 217 kts 68°
2026-04-29 15:15 1.51898 110.42996 3005 ft 256 kts 68°
2026-04-29 15:15 1.52775 110.44559 3000 ft 267 kts 50°
2026-04-29 15:15 1.53727 110.45630 3000 ft 268 kts 47°
2026-04-29 15:16 1.54863 110.46838 2996 ft 268 kts 46°
2026-04-29 15:16 1.56043 110.48076 2998 ft 268 kts 46°
2026-04-29 15:16 1.57087 110.49177 2997 ft 268 kts 46°
2026-04-29 15:16 1.58365 110.50536 3035 ft 268 kts 47°
2026-04-29 15:17 1.59637 110.51900 3085 ft 268 kts 47°
2026-04-29 15:17 1.60494 110.52822 3114 ft 268 kts 47°
2026-04-29 15:17 1.62182 110.54643 3297 ft 272 kts 47°
2026-04-29 15:17 1.63050 110.55579 3696 ft 272 kts 47°
2026-04-29 15:18 1.64110 110.56723 4568 ft 270 kts 47°
2026-04-29 15:18 1.65263 110.57965 5443 ft 272 kts 47°
2026-04-29 15:18 1.66444 110.59239 5881 ft 275 kts 48°
2026-04-29 15:18 1.67738 110.60635 6119 ft 276 kts 48°
2026-04-29 15:19 1.68957 110.61951 5939 ft 279 kts 48°
2026-04-29 15:19 1.70053 110.63165 5595 ft 280 kts 50°
2026-04-29 15:19 1.71159 110.64505 5371 ft 273 kts 51°
2026-04-29 15:19 1.72338 110.65962 5357 ft 272 kts 52°
2026-04-29 15:20 1.73535 110.67450 5674 ft 277 kts 52°
2026-04-29 15:20 1.74739 110.68944 6608 ft 274 kts 52°
2026-04-29 15:20 1.75936 110.70427 7518 ft 275 kts 52°
2026-04-29 15:20 1.77150 110.71929 8160 ft 280 kts 52°
2026-04-29 15:21 1.78376 110.73447 8494 ft 281 kts 52°
2026-04-29 15:21 1.79608 110.74971 8744 ft 282 kts 52°
2026-04-29 15:21 1.80843 110.76499 9042 ft 283 kts 52°
2026-04-29 15:21 1.82079 110.78027 9535 ft 284 kts 52°
2026-04-29 15:22 1.83324 110.79568 10011 ft 286 kts 52°
2026-04-29 15:22 1.84454 110.80966 10428 ft 287 kts 52°
2026-04-29 15:22 1.85715 110.82526 10893 ft 290 kts 52°
2026-04-29 15:22 1.86986 110.84098 11361 ft 292 kts 52°
2026-04-29 15:23 1.88266 110.85682 11844 ft 294 kts 52°
2026-04-29 15:23 1.89558 110.87279 12332 ft 296 kts 52°
2026-04-29 15:23 1.90858 110.88887 12833 ft 300 kts 52°
2026-04-29 15:23 1.92175 110.90518 13589 ft 302 kts 52°
2026-04-29 15:24 1.93503 110.92160 14260 ft 305 kts 52°
2026-04-29 15:24 1.94846 110.93821 14910 ft 309 kts 52°
2026-04-29 15:24 1.96203 110.95500 15561 ft 312 kts 52°
2026-04-29 15:24 1.97553 110.97171 16180 ft 316 kts 52°
2026-04-29 15:25 1.98943 110.98890 16545 ft 319 kts 52°
2026-04-29 15:25 2.00339 111.00618 16787 ft 320 kts 52°
2026-04-29 15:25 2.01736 111.02347 17039 ft 321 kts 52°
2026-04-29 15:25 2.03145 111.04090 17287 ft 322 kts 52°
2026-04-29 15:26 2.04528 111.05802 17534 ft 324 kts 52°
2026-04-29 15:26 2.05946 111.07556 17786 ft 325 kts 52°
2026-04-29 15:26 2.07369 111.09317 18038 ft 327 kts 52°
2026-04-29 15:26 2.08802 111.11091 18279 ft 328 kts 52°
2026-04-29 15:27 2.10238 111.12868 18507 ft 329 kts 52°
2026-04-29 15:27 2.11532 111.14470 18704 ft 330 kts 52°
2026-04-29 15:27 2.12975 111.16256 18925 ft 331 kts 52°
2026-04-29 15:27 2.14424 111.18050 19153 ft 332 kts 52°
2026-04-29 15:28 2.15878 111.19849 19371 ft 333 kts 52°
2026-04-29 15:28 2.16843 111.21043 19524 ft 334 kts 52°
2026-04-29 15:28 2.18721 111.23369 19820 ft 336 kts 52°
2026-04-29 15:28 2.20188 111.25185 20054 ft 336 kts 52°
2026-04-29 15:29 2.21667 111.27017 20407 ft 340 kts 52°
2026-04-29 15:29 2.24646 111.30704 21516 ft 343 kts 52°
2026-04-29 15:30 2.27538 111.34285 22488 ft 349 kts 52°
2026-04-29 15:30 2.28776 111.35818 22882 ft 351 kts 52°
2026-04-29 15:30 2.30316 111.37724 23377 ft 354 kts 52°
2026-04-29 15:30 2.31847 111.39617 23790 ft 356 kts 52°
2026-04-29 15:31 2.33479 111.41500 24194 ft 359 kts 50°
2026-04-29 15:31 2.34998 111.43167 24571 ft 361 kts 49°
2026-04-29 15:31 2.36571 111.44880 24942 ft 363 kts 49°
2026-04-29 15:31 2.38139 111.46599 25301 ft 365 kts 50°
2026-04-29 15:32 2.39850 111.48487 25675 ft 368 kts 50°
2026-04-29 15:32 2.41566 111.50393 26060 ft 370 kts 50°
2026-04-29 15:32 2.43288 111.52310 26442 ft 372 kts 50°
2026-04-29 15:32 2.45022 111.54243 26819 ft 374 kts 50°
2026-04-29 15:33 2.46765 111.56186 27184 ft 376 kts 50°
2026-04-29 15:33 2.48518 111.58140 27556 ft 379 kts 50°
2026-04-29 15:33 2.50279 111.60104 27910 ft 381 kts 50°
2026-04-29 15:33 2.52054 111.62081 28261 ft 383 kts 50°
2026-04-29 15:34 2.53839 111.64071 28613 ft 385 kts 50°
2026-04-29 15:34 2.55634 111.66073 28949 ft 387 kts 50°
2026-04-29 15:34 2.57436 111.68081 29294 ft 389 kts 50°
2026-04-29 15:34 2.59249 111.70102 29629 ft 392 kts 50°
2026-04-29 15:35 2.61074 111.72137 29961 ft 394 kts 50°
2026-04-29 15:35 2.62909 111.74183 30258 ft 396 kts 50°
2026-04-29 15:35 2.64749 111.76234 30581 ft 397 kts 50°
2026-04-29 15:35 2.66589 111.78286 30951 ft 396 kts 50°
2026-04-29 15:36 2.68423 111.80331 31341 ft 395 kts 50°
2026-04-29 15:36 2.69965 111.82050 31652 ft 395 kts 50°
2026-04-29 15:36 2.71779 111.84073 32011 ft 394 kts 50°
2026-04-29 15:36 2.73606 111.86110 32359 ft 394 kts 50°
2026-04-29 15:37 2.75409 111.88122 32694 ft 393 kts 50°
2026-04-29 15:37 2.77256 111.90181 33031 ft 393 kts 50°
2026-04-29 15:37 2.79053 111.92187 33335 ft 392 kts 50°
2026-04-29 15:37 2.80874 111.94218 33647 ft 392 kts 49°
2026-04-29 15:38 2.82693 111.96247 33940 ft 391 kts 49°
2026-04-29 15:38 2.84509 111.98273 34195 ft 391 kts 49°
2026-04-29 15:38 2.86321 112.00295 34448 ft 390 kts 49°
2026-04-29 15:38 2.88130 112.02313 34694 ft 390 kts 49°
2026-04-29 15:39 2.89846 112.04403 34909 ft 388 kts 56°
2026-04-29 15:39 2.91368 112.06629 35123 ft 388 kts 57°
2026-04-29 15:39 2.92770 112.08682 35329 ft 387 kts 57°
2026-04-29 15:39 2.94147 112.10689 35522 ft 387 kts 57°
2026-04-29 15:40 2.95670 112.12904 35736 ft 386 kts 57°
2026-04-29 15:40 2.97191 112.15118 35947 ft 386 kts 57°
2026-04-29 15:40 2.98710 112.17328 36148 ft 386 kts 57°
2026-04-29 15:40 3.00231 112.19543 36322 ft 386 kts 57°
2026-04-29 15:41 3.01753 112.21761 36464 ft 387 kts 57°
2026-04-29 15:41 3.03259 112.23955 36605 ft 389 kts 57°
2026-04-29 15:41 3.04797 112.26196 36651 ft 393 kts 57°
2026-04-29 15:42 3.07921 112.30749 36723 ft 401 kts 57°
2026-04-29 15:42 3.11136 112.35434 36799 ft 410 kts 57°
2026-04-29 15:43 3.14040 112.39665 36872 ft 418 kts 57°
2026-04-29 15:43 3.17212 112.44289 36948 ft 426 kts 57°
2026-04-29 15:44 3.20273 112.48751 37017 ft 434 kts 57°
2026-04-29 15:44 3.23604 112.53606 37024 ft 438 kts 57°
2026-04-29 15:44 3.25328 112.56119 36901 ft 440 kts 57°
2026-04-29 15:45 3.27069 112.58659 36906 ft 445 kts 57°
2026-04-29 15:45 3.30592 112.63795 36907 ft 448 kts 57°
2026-04-29 15:46 3.33965 112.68714 36906 ft 447 kts 57°
2026-04-29 15:46 3.37201 112.73435 36905 ft 447 kts 57°
2026-04-29 15:47 3.40721 112.78570 36906 ft 447 kts 57°
2026-04-29 15:47 3.44237 112.83700 36901 ft 447 kts 57°
2026-04-29 15:48 3.47890 112.88738 36903 ft 447 kts 56°
2026-04-29 15:48 3.51438 112.93844 36906 ft 447 kts 57°
2026-04-29 15:49 3.54988 112.98958 36905 ft 448 kts 56°
2026-04-29 15:49 3.58561 113.04065 36902 ft 448 kts 56°
2026-04-29 15:50 3.62141 113.09171 36904 ft 448 kts 56°
2026-04-29 15:50 3.65721 113.14279 36905 ft 448 kts 56°
2026-04-29 15:51 3.68746 113.18596 36905 ft 448 kts 56°
2026-04-29 15:51 3.72004 113.23246 36906 ft 449 kts 56°
2026-04-29 15:52 3.75520 113.28265 36907 ft 448 kts 56°
2026-04-29 15:52 3.79006 113.33242 36901 ft 449 kts 56°
2026-04-29 15:53 3.82063 113.37607 36912 ft 448 kts 56°
2026-04-29 15:53 3.85329 113.42272 36911 ft 449 kts 56°
2026-04-29 15:54 3.88683 113.47062 36904 ft 449 kts 56°
2026-04-29 15:54 3.91948 113.51727 36912 ft 449 kts 56°
2026-04-29 15:55 3.95531 113.56847 36909 ft 449 kts 56°
2026-04-29 15:55 3.99093 113.61937 36908 ft 449 kts 56°
2026-04-29 15:56 4.02679 113.67063 36913 ft 450 kts 56°
2026-04-29 15:56 4.06268 113.72194 36912 ft 450 kts 56°
2026-04-29 15:57 4.09855 113.77323 36914 ft 450 kts 56°
2026-04-29 15:57 4.13446 113.82459 36915 ft 450 kts 56°
2026-04-29 15:58 4.17038 113.87597 36911 ft 450 kts 56°
2026-04-29 15:58 4.20446 113.92472 36912 ft 450 kts 56°
2026-04-29 15:59 4.23872 113.97375 36913 ft 450 kts 56°
2026-04-29 15:59 4.27462 114.02512 36910 ft 450 kts 56°
2026-04-29 16:00 4.30962 114.07524 36911 ft 451 kts 56°
2026-04-29 16:00 4.34558 114.12672 36912 ft 450 kts 56°
2026-04-29 16:01 4.38153 114.17820 36911 ft 451 kts 56°
2026-04-29 16:01 4.41239 114.22240 36626 ft 451 kts 56°
2026-04-29 16:01 4.43042 114.24822 36196 ft 452 kts 56°
2026-04-29 16:02 4.44841 114.27400 35716 ft 452 kts 56°
2026-04-29 16:02 4.46644 114.29983 35245 ft 452 kts 56°
2026-04-29 16:02 4.48445 114.32564 34791 ft 452 kts 56°
2026-04-29 16:02 4.50252 114.35153 34331 ft 454 kts 55°
2026-04-29 16:03 4.51636 114.37136 33993 ft 455 kts 55°
2026-04-29 16:03 4.53520 114.39837 33475 ft 456 kts 56°
2026-04-29 16:03 4.55339 114.42443 32976 ft 456 kts 56°
2026-04-29 16:03 4.57158 114.45050 32481 ft 457 kts 56°
2026-04-29 16:04 4.58986 114.47668 31989 ft 458 kts 56°
2026-04-29 16:04 4.60191 114.49396 31682 ft 459 kts 56°
2026-04-29 16:04 4.62459 114.52647 31094 ft 460 kts 56°
2026-04-29 16:04 4.63506 114.54148 30832 ft 461 kts 56°
2026-04-29 16:05 4.65215 114.56597 30415 ft 462 kts 56°
2026-04-29 16:05 4.67050 114.59229 29958 ft 460 kts 57°
2026-04-29 16:05 4.68673 114.61556 29487 ft 456 kts 57°
2026-04-29 16:05 4.70355 114.63968 29006 ft 452 kts 56°
2026-04-29 16:06 4.72035 114.66379 28525 ft 447 kts 56°
2026-04-29 16:06 4.73807 114.68922 28019 ft 443 kts 56°
2026-04-29 16:06 4.75566 114.71447 27526 ft 440 kts 56°
2026-04-29 16:06 4.77308 114.73948 27045 ft 436 kts 56°
2026-04-29 16:07 4.79038 114.76432 26568 ft 433 kts 56°
2026-04-29 16:07 4.80734 114.78865 26093 ft 430 kts 56°
2026-04-29 16:07 4.82437 114.81312 25676 ft 426 kts 56°
2026-04-29 16:07 4.84129 114.83741 25259 ft 423 kts 56°
2026-04-29 16:08 4.85809 114.86154 24850 ft 421 kts 56°
2026-04-29 16:08 4.87509 114.88535 24439 ft 419 kts 53°
2026-04-29 16:08 4.89373 114.90706 24038 ft 417 kts 49°
2026-04-29 16:08 4.91038 114.92576 23684 ft 414 kts 50°
2026-04-29 16:09 4.92782 114.94543 23325 ft 410 kts 50°
2026-04-29 16:09 4.94532 114.96522 23077 ft 407 kts 50°
2026-04-29 16:09 4.96056 114.98246 22857 ft 408 kts 50°
2026-04-29 16:09 4.97765 115.00179 22581 ft 407 kts 50°
2026-04-29 16:10 4.99638 115.02297 22281 ft 404 kts 50°
2026-04-29 16:10 5.01498 115.04401 21985 ft 402 kts 50°
2026-04-29 16:10 5.03199 115.06326 21702 ft 401 kts 50°
2026-04-29 16:10 5.04893 115.08243 21435 ft 399 kts 50°
2026-04-29 16:11 5.06752 115.10346 21145 ft 398 kts 50°
2026-04-29 16:11 5.08582 115.12416 20858 ft 396 kts 50°
2026-04-29 16:11 5.10254 115.14309 20595 ft 394 kts 50°
2026-04-29 16:11 5.12069 115.16363 20317 ft 393 kts 50°
2026-04-29 16:12 5.13853 115.18383 20041 ft 391 kts 50°
2026-04-29 16:12 5.15351 115.20078 19811 ft 390 kts 49°
2026-04-29 16:12 5.17170 115.22137 19529 ft 388 kts 49°
2026-04-29 16:12 5.18958 115.24161 19261 ft 386 kts 49°
2026-04-29 16:13 5.20734 115.26172 18995 ft 385 kts 49°
2026-04-29 16:13 5.22504 115.28177 18728 ft 383 kts 49°
2026-04-29 16:13 5.24269 115.30175 18428 ft 382 kts 49°
2026-04-29 16:13 5.25762 115.31865 18052 ft 381 kts 49°
2026-04-29 16:14 5.27242 115.33542 17648 ft 377 kts 49°
2026-04-29 16:14 5.29020 115.35555 17156 ft 372 kts 49°
2026-04-29 16:14 5.30427 115.37149 16773 ft 371 kts 49°
2026-04-29 16:14 5.31964 115.38890 16355 ft 370 kts 49°
2026-04-29 16:15 5.33334 115.40443 15983 ft 366 kts 49°
2026-04-29 16:15 5.34855 115.42166 15573 ft 364 kts 49°
2026-04-29 16:15 5.36368 115.43880 15098 ft 364 kts 49°
2026-04-29 16:15 5.38052 115.45789 14475 ft 365 kts 49°
2026-04-29 16:16 5.39736 115.47697 13865 ft 366 kts 49°
2026-04-29 16:16 5.41170 115.49323 13303 ft 365 kts 49°
2026-04-29 16:16 5.42856 115.51235 12627 ft 365 kts 49°
2026-04-29 16:16 5.44430 115.53207 11968 ft 363 kts 56°
2026-04-29 16:17 5.45620 115.55205 11368 ft 362 kts 63°
2026-04-29 16:17 5.46540 115.57282 10847 ft 359 kts 68°
2026-04-29 16:17 5.47421 115.59390 10517 ft 351 kts 67°
2026-04-29 16:17 5.48357 115.61597 10373 ft 336 kts 67°
2026-04-29 16:18 5.49255 115.63705 10243 ft 321 kts 67°
2026-04-29 16:18 5.50115 115.65722 10129 ft 308 kts 67°
2026-04-29 16:18 5.50873 115.67503 10010 ft 296 kts 67°
2026-04-29 16:18 5.51598 115.69206 9725 ft 292 kts 67°
2026-04-29 16:19 5.52392 115.71075 9311 ft 290 kts 67°
2026-04-29 16:19 5.53183 115.72933 8923 ft 289 kts 67°
2026-04-29 16:19 5.53971 115.74784 8509 ft 287 kts 67°
2026-04-29 16:19 5.54838 115.76584 8098 ft 287 kts 60°
2026-04-29 16:20 5.55900 115.78268 7699 ft 285 kts 58°
2026-04-29 16:20 5.56957 115.79950 7312 ft 284 kts 59°
2026-04-29 16:20 5.57866 115.81405 6973 ft 282 kts 59°
2026-04-29 16:20 5.58792 115.82890 6638 ft 281 kts 59°
2026-04-29 16:21 5.59827 115.84552 6257 ft 280 kts 59°
2026-04-29 16:21 5.60857 115.86205 5852 ft 279 kts 59°
2026-04-29 16:21 5.61884 115.87854 5477 ft 277 kts 59°
2026-04-29 16:21 5.62907 115.89493 5126 ft 276 kts 59°
2026-04-29 16:22 5.63752 115.90849 4830 ft 276 kts 59°
2026-04-29 16:22 5.64931 115.92351 4561 ft 272 kts 43°
2026-04-29 16:22 5.66469 115.93437 4441 ft 273 kts 30°
2026-04-29 16:22 5.67629 115.94025 4359 ft 271 kts 26°
2026-04-29 16:23 5.69067 115.94646 4260 ft 264 kts 23°
2026-04-29 16:23 5.70467 115.95231 4162 ft 256 kts 24°
2026-04-29 16:23 5.71920 115.95851 3952 ft 249 kts 24°
2026-04-29 16:23 5.73220 115.96404 3733 ft 240 kts 24°
2026-04-29 16:24 5.74608 115.96993 3490 ft 235 kts 24°
2026-04-29 16:24 5.76101 115.97627 3211 ft 232 kts 24°
2026-04-29 16:24 5.77532 115.98234 2926 ft 220 kts 24°
2026-04-29 16:24 5.78900 115.98817 2662 ft 207 kts 23°
2026-04-29 16:25 5.80169 115.99354 2437 ft 187 kts 23°
2026-04-29 16:25 5.81309 115.99839 2198 ft 167 kts 23°
2026-04-29 16:25 5.82321 116.00269 1981 ft 150 kts 23°
2026-04-29 16:25 5.83180 116.00634 1809 ft 137 kts 23°
2026-04-29 16:26 5.84030 116.00995 1660 ft 140 kts 23°
2026-04-29 16:26 5.84918 116.01372 1486 ft 138 kts 23°
2026-04-29 16:26 5.85800 116.01747 1315 ft 137 kts 23°
2026-04-29 16:26 5.86679 116.02121 1143 ft 137 kts 23°
2026-04-29 16:27 5.87555 116.02493 960 ft 137 kts 23°
2026-04-29 16:27 5.88366 116.02838 794 ft 136 kts 23°
2026-04-29 16:27 5.89239 116.03208 618 ft 136 kts 24°
2026-04-29 16:27 5.90115 116.03581 424 ft 137 kts 24°
2026-04-29 16:28 5.90980 116.03946 278 ft 135 kts 24°
2026-04-29 16:28 5.91790 116.04299 84 ft 135 kts 24°
2026-04-29 16:28 5.92461 116.04587 29 ft 121 kts 22°
2026-04-29 16:28 5.93050 116.04835 28 ft 63 kts 22°
2026-04-29 16:29 5.93270 116.04926 28 ft 5 kts 22°
2026-04-29 16:29 5.93331 116.04953 28 ft 18 kts 24°
2026-04-29 16:29 5.93463 116.05007 28 ft 22 kts 22°
2026-04-29 16:29 5.93586 116.05057 28 ft 19 kts 22°
2026-04-29 16:30 5.93686 116.05099 28 ft 12 kts 22°
2026-04-29 16:30 5.93746 116.05124 28 ft 6 kts 22°
2026-04-29 16:30 5.93767 116.05132 28 ft 0 kts 22°